Flag Weather past 2 weeks in Shawinigan, Quebec, Canada

Now
35 °F

Chilly.


Feels Like: 27 °F
Forecast: 31 / 35 °F
Wind: 9 mph from West

Location: Shawinigan CS

Current Time: Nov 26, 2014 at 2:58:19 AM

Latest Report: Nov 26, 2014 at 2:00 AM


Visibility: N/A

Pressure: 30.09 "Hg

Humidity: 53%

Dew point: 19 °F

Location of ShawiniganLocation

Historic Weather in Shawinigan — Graph

°F

Shawinigan temperature yesterday

Maximum temperature yesterday: 49 °F (at 12:00 AM)
Minimum temperature yesterday: 37 °F (at 11:00 PM)
Average temperature yesterday: 42 °F

Past Weeks' High & Low Weather Summary

 TemperatureHumidityPressure
High54 °F (Nov 24, 8:00 PM)100% (Nov 12, 8:00 AM)30.29 "Hg (Nov 12, 8:00 AM)
Low5 °F (Nov 22, 2:00 AM)33% (Nov 13, 1:00 PM)29.24 "Hg (Nov 24, 7:00 PM)
Average30 °F76%29.86 "Hg
* Reported Nov 11 1:00 AM — Nov 26 1:00 AM, Shawinigan, Weather by CustomWeather, © 2014

Note: Actual official high and low records may vary slightly from our data, if they occured in-between our weather recording intervals... More about our weather records

Advertising

Shawinigan weather history for previous 24 hours

 ConditionsComfort  
Time TempWeatherWind HumidityBarometerVisibility
1:00 AM
Nov 26
36 °FChilly.8 mph65%30.03 "HgN/A
12:00 AM37 °FChilly.9 mph63%29.98 "HgN/A
11:00 PM
Nov 25
37 °FChilly.7 mph63%29.94 "HgN/A
10:00 PM38 °FChilly.12 mph67%29.90 "HgN/A
9:00 PM38 °FChilly.10 mph66%29.87 "HgN/A
8:00 PM39 °FChilly.10 mph67%29.85 "HgN/A
7:00 PM40 °FChilly.12 mph65%29.83 "HgN/A
6:00 PM38 °FChilly.10 mph77%29.80 "HgN/A
5:00 PM38 °FChilly.10 mph77%29.78 "HgN/A
4:00 PM42 °FQuite cool.12 mph71%29.77 "HgN/A
3:00 PM43 °FQuite cool.12 mph56%29.75 "HgN/A
7:00 AM42 °FQuite cool.14 mph65%29.60 "HgN/A
6:00 AM42 °FQuite cool.12 mph67%29.58 "HgN/A
5:00 AM42 °FQuite cool.13 mph66%29.55 "HgN/A
4:00 AM43 °FQuite cool.10 mph64%29.53 "HgN/A
3:00 AM45 °FQuite cool.16 mph64%29.50 "HgN/A
2:00 AM46 °FCool.14 mph58%29.46 "HgN/A
Weather by CustomWeather, © 2014

See weather overviewHow to use our weather pages